Other Public Products
Issued by NWS Grand Forks, ND

Home | Current Version | Previous Version | Graphics & Text | Print | Product List | Glossary On
Versions: 1 2 3 4 5 6 7 8 9 10 11 12 13 14 15 16 17 18 19 20 21 22 23 24 25 26 27 28 29 30 31 32 33 34 35 36 37 38 39 40 41 42 43 44 45 46 47 48 49 50
000
FPUS83 KFGF 222131
OPUFGF
PRAIRIE TO PINES WEATHER ROUNDUP
NATIONAL WEATHER SERVICE EASTERN NORTH DAKOTA/GRAND FORKS ND
400 PM CDT FRI MAY 22 2015

 **SATELLITE DATA USED TO AUGMENT SKY COVER AT AUTOMATED STATIONS**
 *****  WEATHER ACROSS EASTERN NORTH DAKOTA  *****

CITY           SKY/WX    TMP DP  RH WIND       PRES   REMARKS
GRAND FORKS    MOSUNNY   77  38  24 SW12      30.14F
GRAND FORKS AF SUNNY     77  39  24 SW10      30.14F
GRAND CITY NWS   N/A     77 N/A N/A W7          N/A
BUXTON           N/A     76  41  27 SE9         N/A
DEVILS LAKE    SUNNY     75  36  23 SE15      30.13F
FARGO          SUNNY     74  41  30 S9        30.16F
WAHPETON ARPT  CLEAR     73  30  20 NE3       30.16F
$$

 *****  WEATHER ACROSS CENTRAL AND WESTERN NORTH DAKOTA  *****

CITY           SKY/WX    TMP DP  RH WIND       PRES   REMARKS
JAMESTOWN      SUNNY     74  34  23 SE9       30.14F
BISMARCK       MOSUNNY   76  38  25 S20       30.11F
MINOT          MOSUNNY   76  33  21 S14G20    30.09F
MINOT AFB      SUNNY     78  35  20 SE10      30.08F
GARRISON         N/A     76  33  21 S15G23    30.10F
WILLISTON      SUNNY     76  33  21 S13G24    30.06F
DICKINSON      MOSUNNY   73  27  18 SE26G33   30.05F
HETTINGER      MOSUNNY   69  33  26 SE23G31   30.08F
$$

 *****  OTHER OBSERVATIONS NORTHEAST NORTH DAKOTA  *****

CITY           SKY/WX    TMP DP  RH WIND       PRES   REMARKS
WALHALLA       FAIR      75  39  27 NE8       30.10S
LANGDON        FAIR      77  36  22 VRB6G22   30.13F
CAVALIER       FAIR      77  37  24 SW13      30.10S
GRAFTON        FAIR      77  41  27 S12       30.13S
CANDO          FAIR      77  30  18 S16G22    30.13F
FORT TOTTEN      N/A     76  31  19 S10       29.95
ROLLA            N/A     73  27  17 S10       30.13F
RUGBY          NOT AVBL
 ***** THE ABOVE OBSERVATIONS ARE NON NWS ARE NOT QUALITY
        CONTROLLED AND MAY MIS-REPORT RAIN FOR SNOW...
$$

 *****  OTHER OBSERVATIONS SOUTHEAST NORTH DAKOTA *****

CITY           SKY/WX    TMP DP  RH WIND       PRES   REMARKS
COOPERSTOWN    NOT AVBL
VALLEY CITY    FAIR      73  36  25 S14       30.15F
OAKES            N/A     73  37  27 SE7       30.14F
GWINNER        NOT AVBL
SHEYENNE NWR     N/A     77  33  20 SE6       29.95
BUFFALO        NOT AVBL
WYNDMERE         N/A     77  28  16 S6          N/A
 ***** THE ABOVE OBSERVATIONS ARE NON NWS ARE NOT QUALITY
       CONTROLLED AND MAY MIS-REPORT RAIN FOR SNOW...
$$

  *****  WEATHER ACROSS NORTHERN MINNESOTA  *****

CITY           SKY/WX    TMP DP  RH WIND       PRES   REMARKS
FLAG ISLAND    SUNNY     59  48  67 S10       30.06F
WARROAD        SUNNY     75  45  33 SW15G22   30.11F
ROSEAU         SUNNY     75  37  25 SW12G20   30.12S
HALLOCK        MOSUNNY   79  37  22 SW13G20   30.10F
THF RVR FALLS  SUNNY     75  34  22 SW7       30.15F
HALSTAD          N/A     76  36  22 S8          N/A
FOSSTON        SUNNY     75  37  25 S5        30.16F
BAUDETTE       SUNNY     77  38  24 W8G17     30.11F
WASKISH        SUNNY     72  43  35 CALM      30.15F
CROOKSTON      SUNNY     75  36  23 W8        30.15F
$$
  *****  WEATHER ACROSS CENTRAL AND WEST MINNESOTA  *****

CITY           SKY/WX    TMP DP  RH WIND       PRES   REMARKS
BEMIDJI        SUNNY     74  35  24 CALM      30.16S
PARK RAPIDS    SUNNY     74  30  19 VRB3      30.17F
WADENA         SUNNY     72  37  28 S3        30.18F
DETROIT LAKES  LGT RAIN  72  34  25 SW9       30.19F
MOORHEAD       SUNNY     73  37  27 S8        30.16F
FERGUS FALLS   SUNNY     73  36  25 SE6       30.16F
ELBOW LAKE     FAIR      73  38  28 S9        30.17F
MORRIS MN      SUNNY     75  32  20 SE7       30.16F
STAPLES        SUNNY     72  32  23 S6        30.19S
WHEATON        SUNNY     72  34  25 E7        30.17F
$$
  *****  WEATHER ELSEWHERE ACROSS MINNESOTA  *****

CITY           SKY/WX    TMP DP  RH WIND       PRES   REMARKS
DULUTH         MOSUNNY   71  31  22 VRB3      30.18F
INTRNTL FALLS  SUNNY     75  32  20 W12       30.12F
ELY            SUNNY     70  27  19 W10G16    30.15F
CLOQUET        SUNNY     72  25  17 SW6       30.18S
BRAINERD       SUNNY     73  32  22 N7        30.19F
HIBBING        SUNNY     72  31  22 VRB6      30.16F
ALEXANDRIA     SUNNY     71  35  26 SW9       30.20F
SAINT CLOUD    SUNNY     72  36  26 CALM      30.20F
MINNEAPOLIS    MOSUNNY   72  33  24 VRB3      30.20F
$$

  *****  WEATHER ACROSS SOUTH DAKOTA  *****

CITY           SKY/WX    TMP DP  RH WIND       PRES   REMARKS
SIOUX FALLS    CLOUDY    71  42  35 S10       30.16F
BROOKINGS      PTSUNNY   73  34  23 SE3       30.16F
WATERTOWN      PTSUNNY   74  33  22 CALM      30.16F
HURON          PTSUNNY   74  35  24 S10       30.14F
SISSETON         N/A     74  27  17 CALM      30.15F
ABERDEEN       PTSUNNY   77  35  21 VRB3      30.12F
MITCHELL       CLOUDY    73  38  27 S16G23    30.16F
PIERRE         CLOUDY    70  38  31 S18G26    30.10F
MOBRIDGE       MOSUNNY   73  39  29 S16       30.08F
RAPID CITY     CLOUDY    62  43  49 SE16G23   30.07F
$$

  *****  SOME WEATHER IN NEARBY STATES *****

CITY           SKY/WX    TMP DP  RH WIND       PRES   REMARKS
GLASGOW MT     CLOUDY    74  41  30 S21G28    29.98F
GREAT FALLS MT PTSUNNY   70  38  31 NE5       29.93F
CHEYENNE WY    NOT AVBL
SCOTTSBLUFF NE CLOUDY    50  45  83 SE18G25   30.06S
OMAHA NE       LGT RAIN  61  48  62 SW9       30.25R
DES MOINES IA  CLOUDY    74  36  25 S3        30.20F
DAVENPORT IA   CLOUDY    76  31  19 S6        30.20S
CHICAGO IL     PTSUNNY   64  28  25 E12       30.24S
EAU CLAIRE WI  SUNNY     70  31  23 VRB3      30.21F
LA CROSSE WI   SUNNY     76  33  21 NW6       30.20F
$$

  *****  SOME NATIONAL WEATHER *****

CITY           SKY/WX    TMP DP  RH WIND       PRES   REMARKS
LA GUARDIA NY  CLOUDY    71  39  31 W17G26    29.94R
RALEIGH NC     MOSUNNY   74  43  32 NE5       30.18F
ATLANTA GA     MOSUNNY   76  50  40 CALM      30.19S
NEW ORLEANS LA MOSUNNY   82  65  56 NE6       30.14F
OKLAHOMA CITY  DRIZZLE   56  54  93 SE8       30.15S FOG
ALBUQUERQUE NM MOSUNNY   73  31  21 S20G30    30.00F
SALT LAKE CITY CLOUDY    63  42  46 NW13      29.88S
LOS ANGELES CA PTSUNNY   63  52  67 W12G21    30.03F
BOISE ID       PTSUNNY   68  46  45 CALM      29.84F
SEATTLE WA     CLOUDY    61  51  70 SW9G16    30.01S
$$

*** WEATHER ACROSS MANITOBA...SASKATCHEWAN AND ONTARIO ***
                ***ONTARIO***

CITY           SKY/WX    TMP DP  RH WIND       PRES   REMARKS
GERALDTON      SUNNY     55  19  24 VRB2      30.15F
THUNDER BAY    SUNNY     59  23  25 S12G18    30.18S
SIOUX LOOKOUT  MOSUNNY   70  36  28 SW7       30.08F
TORONTO        MOSUNNY   55  30  38 N18G24    30.16R
BIG TROUT LK   MOSUNNY   59  21  23 SW3       29.97F
PICKLE LAKE    MOSUNNY   66  25  20 SW8       30.04F
DRYDEN         SUNNY     72  34  25 SW14G23   30.08F
KENORA         MOSUNNY   72  37  28 SW14      30.08F
$$
                *** MANITOBA***

CITY           SKY/WX    TMP DP  RH WIND       PRES   REMARKS
BRANDON        PTSUNNY   79  37  22 SW12G20   30.09F
DAUPHIN        NOT AVBL
ISLAND LAKE    MOSUNNY   75  39  27 W10       29.86F
PILOT MOUND      N/A     77  30  18 SW12        N/A
THE PAS        PTSUNNY   79  30  17 NW5       29.94S
THOMPSON       MOSUNNY   75  30  19 NW7       29.90S
WINNIPEG       MOSUNNY   81  34  18 NW10      30.06F
LYNN LAKE      MOSUNNY   79  27  14 NW10G18   29.91S
CHURCHILL      CLOUDY    36  32  87 N21       29.99R
GILLAM         MOSUNNY   70  34  26 W8        29.87S
$$
                ***SASKATCHEWAN***

CITY           SKY/WX    TMP DP  RH WIND       PRES   REMARKS
ESTEVAN        MOSUNNY   75  30  19 S12       30.07F
KINDERSLEY     SUNNY     77  27  15 SE21      30.01F
LLOYDMINSTER   MOSUNNY   77  25  14 S10       30.01S
PRINCE ALBERT  MOSUNNY   81  34  18 SW10G17   30.01S
REGINA         MOSUNNY   77  34  20 S9        30.06F



USA.gov is the U.S. government's official web portal to all federal, state and local government web resources and services.